[[{"header":{"parameterUnit":"m.s-1","parameterCategory":1,"la1":30.2991,"la2":30.254,"lo1":-89.0895,"lo2":-89.0444,"dy":0.0017,"dx":0.0017,"nx":28,"ny":28,"refTime":"2023-08-17T21:00:00:Z","depth":0,"parameterNumber":2,"parameterNumberName":"U-component_of_WINDS"},"data":[0,0,0,0,0,0,0,0,0,0,0,0,0,0,0,0,0,0,0,0,0,0,0,0,0,0,0,0,0,0,0,0,0,0,0,0,0,0,0,0,0,0,0,0,0,0,0,0,0,0,0,0,0,0,0,0,0,0,2.2088,2.2089,0,2.2123,2.2123,2.2124,2.2066,2.2064,2.2062,2.2061,2.2098,2.21,2.2103,0,0,0,0,0,0,0,0,0,0,0,0,0,2.1972,2.1975,2.2088,2.2089,2.2089,2.2123,2.2123,2.2124,2.2067,2.2064,2.2062,2.206,2.2097,2.21,2.2104,0,0,0,0,0,0,0,0,0,0,0,0,0,2.2016,2.1976,2.2088,2.2065,2.2063,2.2123,2.2123,2.2124,2.2067,2.2064,2.2061,2.2059,2.2096,2.21,2.2104,2.2189,0,0,2.2117,2.2119,0,0,0,0,0,0,0,0,2.2014,2.2021,2.2068,2.2066,2.2064,2.2087,2.2096,2.2146,2.2068,2.2066,2.206,2.2057,2.2097,2.2101,2.2114,2.2191,2.2192,2.2117,2.212,2.2122,2.2123,0,0,0,0,0,0,0,2.2011,2.2019,2.2102,2.2068,2.2066,2.2052,2.2055,2.2105,2.2097,2.2066,2.2061,2.2066,2.2095,2.211,2.2114,2.2193,2.2117,2.2121,2.2124,2.2125,2.2337,2.234,0,0,0,0,0,0,2.2011,2.2017,2.2101,2.2103,2.2031,2.2057,2.206,2.2083,2.2097,2.2096,2.2069,2.2063,2.2104,2.2109,2.2115,2.2213,2.2122,2.2126,2.2128,2.2334,2.2338,2.2341,0,0,0,0,0,0,2.2009,2.2019,2.2099,2.2059,2.2068,2.2062,2.2088,2.2085,2.2099,2.2099,2.2097,2.2085,2.2102,2.2109,2.217,2.2213,2.2127,2.2131,2.233,2.2335,2.2339,2.241,0,0,0,0,0,0,2.2005,2.2018,2.2051,2.206,2.207,2.2154,2.2091,2.2088,2.2107,2.21,2.2114,2.2113,2.21,2.2164,2.2174,2.2217,2.2135,2.2326,2.2333,2.2338,2.2404,2.2416,2.2427,0,0,0,0,0,2.2001,2.2071,2.2053,2.2063,2.2111,2.2157,2.2163,2.2146,2.2111,2.2142,2.2142,2.2113,2.2207,2.2171,2.2182,2.2227,2.2324,2.2331,2.2338,2.2398,2.2414,2.2427,0,0,0,0,0,0,2.2068,2.2071,2.2052,2.2126,2.2141,2.2147,2.2187,2.2163,2.219,2.2182,2.2161,2.2164,2.2229,2.2234,2.2194,2.2308,2.2259,2.2269,2.2302,2.2317,2.2328,2.2325,2.2138,0,0,0,0,0,2.2091,2.2128,2.2129,2.2194,2.2203,2.2194,2.2213,2.2199,2.2214,2.222,2.2224,2.224,2.2273,2.2295,2.2326,2.2404,2.2405,2.2441,2.2453,2.2462,2.247,2.2509,2.2524,2.2364,2.2364,2.2364,0,0,2.214,2.2146,2.2171,2.2208,2.2218,2.2256,2.22,2.2243,2.2271,2.2227,2.2283,2.2287,2.2303,2.2372,2.2403,2.2379,2.2515,2.2471,2.2479,2.2482,2.2518,2.2533,2.2546,2.2369,2.2368,2.2367,0,0,2.2247,2.2257,2.231,2.2321,2.2336,2.2329,2.2342,2.2351,2.2351,2.2407,2.2374,2.2407,2.2465,2.2477,2.2491,2.2599,2.2573,2.261,2.2671,2.2709,2.2722,2.2733,2.2769,2.2783,2.2619,2.2619,2.2619,0,2.2306,2.2361,2.2341,2.2386,2.2402,2.2363,2.2416,2.2427,2.2453,2.2464,2.2437,2.2506,2.2515,2.2585,2.2611,2.2624,2.2637,2.2608,2.2722,2.2733,2.2743,2.2777,2.2791,2.2623,2.2622,2.2622,2.2622,0,2.2431,2.247,2.2511,2.2534,2.2555,2.2604,2.2591,2.2614,2.2597,2.2593,2.2649,2.2658,2.2688,2.2704,2.2689,2.2771,2.2755,2.2725,2.2676,2.2762,2.2794,2.2807,2.2629,2.2628,2.2626,2.2625,0,0,2.2582,2.2591,2.2607,2.2615,2.2628,2.2657,2.2704,2.2732,2.2751,2.277,2.2807,2.2855,2.2827,2.2842,2.2828,2.2862,2.2944,2.2827,2.2827,2.2846,2.3031,2.3052,2.3068,2.2926,2.2929,2.2931,2.3029,0,2.2687,2.2765,2.2747,2.2824,2.2858,2.2821,2.286,2.2872,2.2869,2.2897,2.2894,2.2928,2.2889,2.2897,2.2929,2.2927,2.298,2.292,2.2959,2.2961,2.2954,2.3085,2.3108,2.32,2.3042,2.3044,2.3045,0,2.2819,2.284,2.292,2.2924,2.2938,2.2974,2.2996,2.3025,2.3037,2.3032,2.3048,2.3026,2.3071,2.3022,2.3082,2.3041,2.3056,2.3057,2.306,2.3062,2.3007,2.3088,2.3229,2.3242,2.3065,2.3063,2.3062,0,2.2918,2.2966,2.3019,2.3028,2.3035,2.3061,2.3065,2.3074,2.3091,2.3111,2.3122,2.3148,2.3161,2.3181,2.3167,2.3133,2.3228,2.3179,2.3224,2.3225,2.3245,2.3244,2.3389,2.3259,2.3258,2.3258,2.3258,0,2.3035,2.3085,2.3063,2.3096,2.315,2.3128,2.3182,2.3182,2.319,2.3222,2.3192,2.3222,2.3201,2.323,2.3219,2.3269,2.3276,2.3272,2.3268,2.3274,2.3274,2.3282,2.3275,2.3262,2.3261,2.326,2.326,0,2.3154,2.3142,2.3197,2.3198,2.3199,2.3239,2.324,2.3269,2.3263,2.3303,2.3311,2.3302,2.3333,2.332,2.3355,2.3347,2.341,2.3399,2.3405,2.3402,2.3447,2.3442,2.3601,2.3619,2.3479,2.3481,2.3482,0,2.3229,2.3266,2.327,2.3288,2.3294,2.3324,2.334,2.332,2.3338,2.3353,2.3381,2.3409,2.343,2.3482,2.3478,2.3503,2.3491,2.3545,2.3495,2.3498,2.3489,2.3486,2.3489,2.3555,2.3556,2.3558,2.3559,0,2.3362,2.3353,2.3377,2.3399,2.3419,2.3435,2.3449,2.3466,2.3446,2.3468,2.3498,2.3515,2.3548,2.3576,2.3598,2.3602,2.3577,2.3575,2.3586,2.3591,2.3592,2.359,2.343,2.3571,2.357,2.3569,2.3568,2.3568,2.3459,2.3489,2.3495,2.3523,2.353,2.3543,2.357,2.3566,2.3591,2.3615,2.3602,2.3638,2.3646,2.3672,2.368,2.3707,2.3686,2.3703,2.3707,2.3711,2.3715,2.3589,2.3711,2.3711,2.371,2.371,2.371,0,2.3588,2.359,2.3615,2.3634,2.3655,2.3628,2.3642,2.3661,2.3692,2.3702,2.3722,2.3756,2.3783,2.378,2.3804,2.3826,2.3815,2.3833,2.383,2.3831,2.3734,2.3721,2.3841,2.3841,2.3841,2.3841,2.3841,2.3841,2.3657,2.3705,2.3697,2.3748,2.3749,2.3782,2.3792,2.3803,2.381,2.3849,2.387,2.3867,2.3872,2.3895,2.3918,2.3916,2.3925,2.3947,2.3941,2.3851,2.3838,2.3825,2.3812,2.395,2.395,2.4035,2.4036,2.4036]},{"header":{"parameterUnit":"m.s-1","parameterCategory":1,"la1":30.2991,"la2":30.254,"lo1":-89.0895,"lo2":-89.0444,"dy":0.0017,"dx":0.0017,"nx":28,"ny":28,"refTime":"2023-08-17T21:00:00:Z","depth":0,"parameterNumber":3,"parameterNumberName":"V-component_of_WINDS"},"data":[0,0,0,0,0,0,0,0,0,0,0,0,0,0,0,0,0,0,0,0,0,0,0,0,0,0,0,0,0,0,0,0,0,0,0,0,0,0,0,0,0,0,0,0,0,0,0,0,0,0,0,0,0,0,0,0,0,0,5.4596,5.4596,0,5.4659,5.4659,5.466,5.4591,5.4589,5.4586,5.4584,5.4641,5.4645,5.4649,0,0,0,0,0,0,0,0,0,0,0,0,0,5.4408,5.4412,5.4595,5.4596,5.4597,5.4658,5.4659,5.466,5.4592,5.4589,5.4586,5.4583,5.464,5.4644,5.4649,0,0,0,0,0,0,0,0,0,0,0,0,0,5.4482,5.4413,5.4595,5.4571,5.4569,5.4658,5.4659,5.466,5.4593,5.4589,5.4585,5.4581,5.4638,5.4644,5.465,5.4764,0,0,5.4668,5.467,0,0,0,0,0,0,0,0,5.4478,5.4489,5.4574,5.4573,5.4571,5.4613,5.4614,5.4695,5.4594,5.4583,5.4584,5.4579,5.4635,5.464,5.4661,5.4767,5.4769,5.4668,5.4672,5.4675,5.4676,0,0,0,0,0,0,0,5.4473,5.4486,5.462,5.4575,5.4573,5.4554,5.456,5.4629,5.463,5.4584,5.4579,5.4588,5.4633,5.4655,5.4661,5.477,5.4668,5.4674,5.4677,5.4679,5.4971,5.4975,0,0,0,0,0,0,5.4472,5.4482,5.4618,5.4622,5.4514,5.456,5.4567,5.4603,5.4629,5.4629,5.4591,5.4585,5.4647,5.4655,5.4663,5.4797,5.4674,5.468,5.4683,5.4967,5.4972,5.4976,0,0,0,0,0,0,5.4468,5.4484,5.4616,5.4551,5.4566,5.4568,5.4609,5.4607,5.4629,5.4635,5.4633,5.4614,5.4644,5.4655,5.474,5.4798,5.4683,5.4688,5.4962,5.4968,5.4974,5.5067,0,0,0,0,0,0,5.4463,5.4483,5.4529,5.4552,5.457,5.4694,5.4613,5.4611,5.464,5.4632,5.4656,5.4656,5.4642,5.4731,5.4745,5.4804,5.4693,5.4956,5.4965,5.4972,5.5058,5.5075,5.509,0,0,0,0,0,5.4456,5.4551,5.4532,5.4548,5.4627,5.4697,5.4707,5.4691,5.4645,5.4689,5.4693,5.4655,5.479,5.474,5.4756,5.4817,5.4952,5.4962,5.4971,5.5051,5.5072,5.509,0,0,0,0,0,0,5.4532,5.4554,5.4532,5.4639,5.4667,5.4686,5.4741,5.4714,5.4754,5.4744,5.472,5.4726,5.4816,5.4825,5.477,5.4928,5.4863,5.4876,5.4919,5.4938,5.4954,5.4949,5.4698,0,0,0,0,0,5.4562,5.462,5.4634,5.4726,5.4742,5.4739,5.4769,5.4755,5.4782,5.4793,5.4802,5.4828,5.4876,5.4908,5.4952,5.506,5.5062,5.5109,5.5125,5.5138,5.5149,5.5204,5.5225,5.5007,5.5007,5.5007,0,0,5.4622,5.4641,5.4679,5.4742,5.4762,5.482,5.475,5.4814,5.4855,5.4802,5.4882,5.4891,5.4917,5.5014,5.5056,5.5024,5.521,5.515,5.5161,5.5164,5.5216,5.5237,5.5255,5.5014,5.5012,5.5011,0,0,5.4762,5.4784,5.4862,5.4884,5.4916,5.4914,5.4933,5.4956,5.496,5.5041,5.5001,5.5049,5.5133,5.5153,5.5175,5.5322,5.5288,5.5337,5.5418,5.5473,5.549,5.5505,5.5555,5.5574,5.5348,5.5348,5.5348,0,5.4832,5.492,5.4905,5.4972,5.5,5.4956,5.5033,5.5055,5.5099,5.5118,5.5082,5.5185,5.52,5.53,5.5336,5.5355,5.5374,5.5333,5.5489,5.5504,5.5518,5.5565,5.5584,5.5354,5.5353,5.5353,5.5352,0,5.5004,5.5066,5.5124,5.5171,5.5205,5.5277,5.5269,5.5306,5.5288,5.5289,5.537,5.5388,5.5434,5.5457,5.5439,5.5553,5.5532,5.5493,5.5427,5.5544,5.5588,5.5607,5.5362,5.536,5.5358,5.5357,0,0,5.5192,5.523,5.5251,5.5271,5.5303,5.5349,5.5418,5.5465,5.5496,5.5528,5.5583,5.5655,5.5619,5.5643,5.5627,5.5675,5.5788,5.563,5.563,5.5657,5.5912,5.5939,5.5961,5.5767,5.577,5.5773,5.5909,0,5.5331,5.5453,5.5441,5.5555,5.561,5.557,5.5629,5.5654,5.5656,5.5701,5.5702,5.5753,5.5703,5.5717,5.5763,5.5765,5.5838,5.5755,5.5815,5.5817,5.5808,5.5985,5.6014,5.6142,5.5926,5.5929,5.5931,0,5.5509,5.555,5.5671,5.5694,5.5716,5.577,5.5812,5.5856,5.5882,5.588,5.5908,5.5884,5.595,5.5885,5.5974,5.5917,5.5941,5.5946,5.595,5.5953,5.588,5.599,5.6182,5.6201,5.5959,5.5956,5.5954,0,5.5632,5.5716,5.5799,5.5817,5.5847,5.5885,5.5899,5.5922,5.5951,5.5986,5.6004,5.6047,5.607,5.6102,5.6089,5.6043,5.618,5.6114,5.6178,5.6178,5.6207,5.6205,5.6403,5.6226,5.6226,5.6225,5.6225,0,5.5787,5.5861,5.5854,5.5905,5.5987,5.5971,5.6051,5.6059,5.608,5.6129,5.6097,5.6143,5.6125,5.6169,5.6159,5.6233,5.6244,5.6243,5.6239,5.6245,5.6245,5.6258,5.6248,5.623,5.6229,5.6228,5.6227,0,5.5936,5.5935,5.6022,5.6044,5.6051,5.611,5.6126,5.6173,5.6173,5.6236,5.6249,5.6248,5.6299,5.629,5.6346,5.6339,5.6431,5.6418,5.6423,5.6419,5.6483,5.6476,5.6695,5.6722,5.6529,5.6531,5.6533,0,5.6034,5.6091,5.6119,5.6152,5.6168,5.622,5.625,5.6236,5.6268,5.6302,5.6344,5.6392,5.643,5.6513,5.6515,5.6557,5.6543,5.6617,5.6548,5.6552,5.6541,5.6537,5.6542,5.6629,5.6631,5.6633,5.6635,0,5.6208,5.6204,5.625,5.6296,5.6333,5.6368,5.6398,5.6426,5.6414,5.6451,5.6504,5.6534,5.6591,5.6639,5.6678,5.6689,5.6659,5.6657,5.6673,5.6678,5.6679,5.6677,5.6458,5.6651,5.6649,5.6648,5.6647,5.6647,5.6333,5.6381,5.6409,5.646,5.6483,5.6512,5.6556,5.6563,5.6607,5.6655,5.6643,5.6702,5.6725,5.6775,5.6791,5.6835,5.6807,5.6831,5.6837,5.6843,5.685,5.6674,5.6842,5.6841,5.6841,5.6841,5.684,0,5.6503,5.6519,5.6567,5.6612,5.6652,5.6624,5.6656,5.6691,5.6744,5.6769,5.6808,5.6867,5.6913,5.692,5.6963,5.6997,5.6984,5.7008,5.7004,5.7007,5.6873,5.6854,5.7018,5.7018,5.7018,5.7018,5.7018,5.7018,5.6596,5.6675,5.6675,5.6764,5.6779,5.6838,5.6859,5.6885,5.6905,5.6974,5.7013,5.7018,5.7035,5.7079,5.7119,5.7119,5.7135,5.7165,5.716,5.7034,5.7017,5.7,5.6981,5.7169,5.7169,5.7289,5.729,5.7291]}]]